STARLINK BM

Last updated on June 13, 2020, 12:02 a.m. UTC

1 45716U 20035BM  20164.66668981  .03139540  10771-1  50715-2 0  9998
2 45716  52.9982 126.8684 0093750  82.4728 126.7918 15.96944610  2674

Satellite is not in orbit.